Flag for Jamaica Weather past 2 weeks in May Pen, Jamaica

Now
90 °F

Passing clouds.


Feels Like: 100 °F
Forecast: 74 / 92 °F
Wind: 18 mph from Southeast

Location: Kingston / Norman Manley

Current Time: Jul 22, 2014 at 6:19:18 PM

Latest Report: Jul 22, 2014 at 11:00 AM


Visibility: N/A

Pressure: 29.98 "Hg

Humidity: 63%

Dew point: 75 °F

Location of May PenLocation

Historic Weather in May Pen — Graph

°F

May Pen temperature yesterday

Maximum temperature yesterday: 91 °F (at 10:00 AM)
Minimum temperature yesterday: 82 °F (at 1:00 AM)
Average temperature yesterday: 87 °F

Past Weeks' High & Low Weather Summary

 TemperatureHumidityPressure
High93 °F (Jul 12, 1:00 PM)84% (Jul 14, 1:00 AM)30.07 "Hg (Jul 14, 1:00 AM)
Low81 °F (Jul 8, 6:00 AM)55% (Jul 12, 9:00 AM)29.89 "Hg (Jul 11, 2:00 PM)
Average86 °F69%29.98 "Hg
* Reported Jul 7 11:00 AM — Jul 22 11:00 AM, May Pen, Weather by CustomWeather, © 2014

Note: Actual official high and low records may vary slightly from our data, if they occured in-between our weather recording intervals... More about our weather records

Advertising

May Pen weather history for previous 24 hours

 ConditionsComfort  
Time TempWeatherWind HumidityBarometerVisibility
11:00 AM
Jul 22
90 °FPassing clouds.18 mph63%29.98 "HgN/A
10:00 AM88 °FPassing clouds.21 mph62%29.98 "HgN/A
9:00 AM86 °FScattered clouds.22 mph70%30.01 "HgN/A
8:00 AM84 °FPassing clouds.6 mph66%30.01 "HgN/A
7:00 AMN/A6 mphN/AN/AN/A
6:00 AM82 °FPassing clouds.9 mph58%29.98 "HgN/A
5:00 AM82 °FPassing clouds.8 mph66%29.95 "HgN/A
4:00 AM82 °FPassing clouds.6 mph62%29.95 "HgN/A
3:00 AM82 °FThundershowers. Passing clouds.8 mph70%29.95 "HgN/A
2:00 AM82 °FThundershowers. Passing clouds.8 mph70%29.95 "HgN/A
1:00 AM86 °FPassing clouds.12 mph62%29.98 "HgN/A
12:00 AM86 °FPassing clouds.15 mph59%29.98 "HgN/A
11:00 PM
Jul 21
86 °FPassing clouds.17 mph62%30.01 "HgN/A
10:00 PM86 °FPassing clouds.17 mph59%30.01 "HgN/A
9:00 PMN/A17 mphN/AN/AN/A
8:00 PM86 °FPassing clouds.20 mph66%29.95 "HgN/A
7:00 PM86 °FPassing clouds.17 mph66%29.95 "HgN/A
6:00 PM88 °FPassing clouds.22 mph62%29.92 "HgN/A
Weather by CustomWeather, © 2014

See weather overviewHow to use our weather pages